This is the latest recevied weather packets stored in our database for station/object W3AJR. If no packets are shown the sender has not sent any weather packets the latest 10 day(s).
| Time | Temp. | Humidity | Pressure | Rain* | Wind** | Luminosity | Snow |
|---|---|---|---|---|---|---|---|
| 1777946633 | 17.78° C | 66% | 1010.9 hPa | 0 mm | - | 0 W/m² | - |
| 1777946330 | 18.33° C | 65% | 1010.8 hPa | 0 mm | - | 0 W/m² | - |
| 1777946027 | 18.33° C | 65% | 1010.9 hPa | 0 mm | - | 0 W/m² | - |
| 1777945725 | 18.33° C | 65% | 1010.8 hPa | 0 mm | - | 0 W/m² | - |
| 1777945421 | 18.33° C | 65% | 1010.8 hPa | 0 mm | - | 0 W/m² | - |
| 1777945118 | 18.33° C | 64% | 1010.7 hPa | 0 mm | - | 0 W/m² | - |
| 1777944815 | 18.33° C | 64% | 1010.6 hPa | 0 mm | - | 0 W/m² | - |
| 1777944514 | 18.33° C | 63% | 1010.7 hPa | 0 mm | - | 0 W/m² | - |
| 1777944211 | 18.33° C | 62% | 1010.5 hPa | 0 mm | - | 0 W/m² | - |
| 1777943907 | 18.89° C | 62% | 1010.4 hPa | 0 mm | - | 0 W/m² | - |
| 1777943604 | 18.89° C | 61% | 1010.4 hPa | 0 mm | - | 0 W/m² | - |
| 1777943300 | 18.89° C | 60% | 1010.3 hPa | 0 mm | - | 0 W/m² | - |
| 1777942996 | 19.44° C | 60% | 1010.2 hPa | 0 mm | - | 0 W/m² | - |
| 1777942692 | 19.44° C | 59% | 1009.9 hPa | 0 mm | - | 0 W/m² | - |
| 1777942389 | 19.44° C | 59% | 1010.5 hPa | 0 mm | - | 0 W/m² | - |
| 1777942087 | 20° C | 58% | 1010.1 hPa | 0 mm | - | 0 W/m² | - |
| 1777941782 | 20° C | 57% | 1010.1 hPa | 0 mm | - | 0 W/m² | - |
| 1777941480 | 20° C | 56% | 1010 hPa | 0 mm | - | 0 W/m² | - |
| 1777941178 | 20.56° C | 56% | 1010.1 hPa | 0 mm | - | 0 W/m² | - |
| 1777940874 | 20.56° C | 55% | 1010.1 hPa | 0 mm | - | 0 W/m² | - |
| 1777940571 | 20.56° C | 55% | 1010.1 hPa | 0 mm | - | 0 W/m² | - |
| 1777940269 | 20.56° C | 54% | 1010 hPa | 0 mm | - | 0 W/m² | - |
| 1777939966 | 20.56° C | 53% | 1009.9 hPa | 0 mm | - | 0 W/m² | - |
| 1777939663 | 20.56° C | 55% | 1009.7 hPa | 0 mm | - | 0 W/m² | - |
| 1777939361 | 20° C | 56% | 1009.8 hPa | 0 mm | - | 2 W/m² | - |
* Rain latest hour (hover to see other rain measurements)
** Current wind speed in m/s (hover to see current wind gust speed)